Preview of NWS' New Version of Forecast
This preview is not operational and should not be used for support decisions.

Regional Weather Roundup (RWR)

Issued by National Weather Service (NWS)

                            
000
ASUS46 KPQR 210110
RWROR 

OREGON REGIONAL WEATHER ROUNDUP
NATIONAL WEATHER SERVICE PORTLAND OR
600 PM PDT TUE AUG 20 2019

NOTE: "FAIR" INDICATES FEW OR NO CLOUDS BELOW 12,000 FEET WITH
NO SIGNIFICANT WEATHER AND/OR OBSTRUCTIONS TO VISIBILITY.

ORZ001>013-210200-
NORTHWEST OREGON

  
CITY           SKY/WX    TMP DP  RH WIND       PRES   REMARKS
ASTORIA        CLOUDY    66  58  75 SW16      29.97S                  
TILLAMOOK      CLOUDY    68  55  64 SW7       30.01F                  
NEWPORT        CLOUDY    66  59  77 SW14      30.05S                  
FLORENCE       FAIR      66  54  63 S7        30.03S                  
PORTLAND       CLOUDY    84  54  35 SW7       29.91R                  
VANCOUVER WA   CLOUDY    82  55  39 VRB7      29.91R                  
SCAPPOOSE      CLOUDY    83  58  42 SW8       29.90R                  
HILLSBORO      CLOUDY    82  56  40 S7        29.92R                  
AURORA         CLOUDY    81  57  43 W8        29.94R                  
MCMINNVILLE    PTSUNNY   74  55  51 SW17      29.95R                  
SALEM          PTSUNNY   76  55  48 W17       29.95R                  
CORVALLIS      PTSUNNY   71  58  63 NW13      29.98R                  
EUGENE         PTSUNNY   76  55  48 SW14      29.99R                  
CRESWELL       SUNNY     81  55  41 NW12      29.96R                  
$$

ORZ021-028-210200-
SOUTHWEST OREGON

  
CITY           SKY/WX    TMP DP  RH WIND       PRES   REMARKS
NORTH BEND     CLOUDY    68  55  63 SW12      30.05R                  
BROOKINGS      CLOUDY    65  57  75 SW3       30.09R                  
ROSEBURG       PTSUNNY   80  57  45 NW8       29.96R                  
SEXTON SUMMIT  PTSUNNY   73  50  44 VRB3      30.09R                  
GRANTS PASS    FAIR      86  48  26 VRB6      29.97R                  
MEDFORD        PTSUNNY   89  50  26 NW15G22   29.91R                  
$$

ORZ014>016-041-210200-
COLUMBIA GORGE

  
CITY           SKY/WX    TMP DP  RH WIND       PRES   REMARKS
TROUTDALE      CLOUDY    85  51  31 SW12      29.91R                  
HOOD RIVER     CLOUDY    81  54  39 W9G20     29.89R                  
THE DALLES     CLOUDY    87  54  32 W18G28    29.82S                  
$$

ORZ029>031-041-044-049-050-061>064-502-503-505>511-210200-
EASTERN OREGON

  
CITY           SKY/WX    TMP DP  RH WIND       PRES   REMARKS
MADRAS         PTSUNNY   86  50  28 NW13G20   29.93R                  
REDMOND        PTSUNNY   88  50  27 NW21      29.94R                  
BEND           PTSUNNY   86  50  28 NW16G22   29.96R                  
PRINEVILLE     PTSUNNY   88  45  22 NW12G17   29.94R                  
KLAMATH FALLS  CLOUDY    84  35  17 W10       30.04S                  
LAKEVIEW       SUNNY     85  34  16 SW12      30.08S                  
HERMISTON      MOSUNNY   94  52  24 CALM      29.80F HX  91           
PENDLETON      PTSUNNY   93  40  15 NW10      29.85F                  
JOHN DAY       SUNNY     93  38  14 NW9       29.95S                  
MEACHAM        PTSUNNY   82  44  26 N6        30.01S                  
LA GRANDE      MOSUNNY   91  49  23 MISG      29.89                   
BAKER CITY     MOSUNNY   95  45  17 CALM      29.91S HX  91           
BURNS          SUNNY     93  35  13 W8        29.99S                  
ROME             N/A     97  27   8 N10       29.95S HX  91           
ONTARIO        SUNNY     98  50  19 VRB3      29.84F HX  95           
$$